Location: Archamps
(46.1365°N, 6.1329°E)
Time: 06:55:29
(UTC+00:00)

Cosmos 1954 Rocket - Pass Details

Date: 28 January 2023
Orbit: 752 x 780 km, 74.0° (Epoch: 21 March)

Event Time Altitude Azimuth Distance (km) Brightness Sun altitude
Rises 18:32:49 0° 185° (S) 3,236 7.4 -20.5°
Reaches altitude 10° 18:35:14 10° 180° (S) 2,310 6.5 -21.0°
Maximum altitude 18:40:18 52° 106° (ESE) 957 4.1 -21.8°
Enters shadow 18:40:36 51° 93° (E) 965 4.1 -21.9°
